[[{"header":{"parameterUnit":"m.s-1","parameterCategory":1,"la1":30.2991,"la2":30.254,"lo1":-89.0895,"lo2":-89.0444,"dy":0.0017,"dx":0.0017,"nx":28,"ny":28,"refTime":"2026-02-05T03:00:00:Z","depth":0,"parameterNumber":2,"parameterNumberName":"U-component_of_WINDS"},"data":[0,0,0,0,0,0,0,0,0,0,0,0,0,0,0,0,0,0,0,0,0,0,0,0,0,0,0,0,0,0,0,0,0,0,0,0,0,0,0,0,0,0,0,0,0,0,0,0,0,0,0,0,0,0,0,0,0,0,5.5881,5.5883,0,5.6076,5.6078,5.608,5.6007,5.6003,5.5999,5.5994,5.6201,5.621,5.6219,0,0,0,0,0,0,0,0,0,0,0,0,0,5.5448,5.5457,5.588,5.5883,5.5885,5.6075,5.6078,5.6081,5.6008,5.6003,5.5997,5.5992,5.6197,5.6209,5.622,0,0,0,0,0,0,0,0,0,0,0,0,0,5.5639,5.5459,5.588,5.5872,5.5873,5.6075,5.6078,5.6081,5.6009,5.6003,5.5996,5.599,5.6194,5.6208,5.6222,5.6445,0,0,5.6266,5.6272,0,0,0,0,0,0,0,0,5.5629,5.5655,5.5871,5.5873,5.5874,5.601,5.6001,5.6204,5.6011,5.5958,5.5994,5.5986,5.6143,5.6161,5.6213,5.6455,5.6464,5.6267,5.6276,5.6282,5.6287,0,0,0,0,0,0,0,5.5615,5.5646,5.5958,5.5874,5.5876,5.586,5.5879,5.6039,5.6086,5.5962,5.5957,5.5981,5.6143,5.6199,5.6217,5.6467,5.6267,5.628,5.6289,5.6295,5.6898,5.6905,0,0,0,0,0,0,5.5601,5.5636,5.5952,5.5964,5.5732,5.5873,5.5895,5.5974,5.6084,5.6094,5.5986,5.5977,5.6178,5.62,5.6224,5.649,5.6282,5.6296,5.6304,5.6891,5.69,5.6908,0,0,0,0,0,0,5.5592,5.563,5.5944,5.5798,5.5837,5.5887,5.5976,5.5981,5.6037,5.6102,5.6111,5.6035,5.6173,5.6204,5.639,5.6496,5.6302,5.6316,5.6883,5.6894,5.6904,5.7025,0,0,0,0,0,0,5.558,5.5627,5.5711,5.5801,5.5845,5.6105,5.5983,5.599,5.6061,5.605,5.615,5.616,5.617,5.6368,5.6404,5.6513,5.6327,5.6873,5.6888,5.6901,5.7012,5.7039,5.7062,0,0,0,0,0,5.5564,5.574,5.5716,5.5755,5.5952,5.6111,5.6137,5.6143,5.607,5.6156,5.6197,5.6157,5.6479,5.6388,5.6428,5.6542,5.6866,5.6884,5.69,5.7001,5.7034,5.7062,0,0,0,0,0,0,5.5665,5.5752,5.5726,5.5935,5.6016,5.6099,5.6207,5.6179,5.6284,5.6269,5.6275,5.6298,5.6489,5.6534,5.6431,5.6762,5.6662,5.6687,5.6725,5.6757,5.6782,5.6766,5.6339,0,0,0,0,0,5.571,5.5831,5.5902,5.608,5.6121,5.6157,5.6227,5.6225,5.631,5.6344,5.6399,5.6485,5.6604,5.6684,5.6798,5.7019,5.7038,5.7117,5.7142,5.7162,5.7184,5.7301,5.7336,5.6962,5.6962,5.6962,0,0,5.5808,5.587,5.5947,5.6101,5.6163,5.6289,5.6187,5.6325,5.6418,5.6366,5.6543,5.6587,5.6682,5.6885,5.6978,5.6929,5.7291,5.7183,5.7199,5.721,5.7321,5.7357,5.7388,5.6974,5.6972,5.697,0,0,5.6048,5.6108,5.6261,5.6325,5.6419,5.6442,5.6479,5.6565,5.6591,5.6769,5.6731,5.6843,5.7051,5.7119,5.7181,5.7444,5.741,5.7482,5.7613,5.7727,5.7757,5.7783,5.7874,5.7907,5.7503,5.7504,5.7504,0,5.6157,5.6343,5.6344,5.6484,5.6552,5.6508,5.6663,5.6726,5.6854,5.6902,5.6846,5.7103,5.7164,5.7381,5.7445,5.7498,5.7539,5.747,5.7752,5.7778,5.7802,5.789,5.7925,5.7512,5.7511,5.751,5.7509,0,5.6471,5.6601,5.6714,5.6835,5.6916,5.7064,5.7087,5.717,5.716,5.7188,5.7369,5.7441,5.7567,5.7619,5.7613,5.7835,5.7801,5.7749,5.7648,5.7846,5.7928,5.7962,5.7523,5.752,5.7518,5.7516,0,0,5.6781,5.6898,5.694,5.6992,5.7092,5.7193,5.7338,5.7459,5.7529,5.7619,5.7739,5.7914,5.7865,5.7936,5.7936,5.8037,5.8237,5.7971,5.7974,5.8016,5.8484,5.8521,5.856,5.8216,5.8222,5.8227,5.8475,0,5.7027,5.7278,5.7282,5.7514,5.7632,5.7591,5.7716,5.7792,5.7822,5.7928,5.7962,5.8085,5.8012,5.8054,5.8151,5.8192,5.8331,5.8175,5.8328,5.8333,5.8303,5.8603,5.8644,5.8874,5.8507,5.8513,5.8517,0,5.7348,5.7444,5.7686,5.7765,5.7816,5.7928,5.8038,5.814,5.8224,5.8239,5.8316,5.8301,5.8449,5.8344,5.8547,5.844,5.8503,5.8532,5.8541,5.8555,5.8436,5.8623,5.8949,5.8982,5.8568,5.8564,5.856,0,5.7546,5.7737,5.7905,5.7952,5.805,5.813,5.8175,5.8252,5.8323,5.842,5.8466,5.8581,5.8643,5.8732,5.8747,5.867,5.895,5.8847,5.8966,5.8966,5.9026,5.9022,5.9364,5.9071,5.907,5.9069,5.9069,0,5.7819,5.7969,5.7994,5.8098,5.8263,5.8267,5.8431,5.847,5.8539,5.8649,5.8622,5.8727,5.8742,5.8851,5.8865,5.9029,5.9059,5.9074,5.9076,5.9076,5.9073,5.9116,5.9099,5.9079,5.9077,5.9075,5.9073,0,5.8068,5.8092,5.8272,5.8349,5.8371,5.849,5.8556,5.8655,5.8681,5.8821,5.8855,5.8897,5.9023,5.9048,5.9199,5.9207,5.9402,5.939,5.9373,5.9371,5.9488,5.9475,5.9868,5.9919,5.9594,5.9597,5.96,0,5.824,5.8353,5.8441,5.8511,5.8559,5.8674,5.8746,5.8754,5.883,5.8932,5.9019,5.9142,5.924,5.9443,5.9488,5.9603,5.9591,5.972,5.9608,5.9603,5.9589,5.9581,5.9592,5.9741,5.9745,5.9748,5.975,0,5.8541,5.8546,5.865,5.8757,5.8842,5.8928,5.9009,5.9069,5.9088,5.9175,5.9302,5.9378,5.9529,5.9651,5.9764,5.9811,5.9784,5.9785,5.9818,5.9818,5.9803,5.981,5.9429,5.9776,5.9773,5.9771,5.977,5.9769,5.8755,5.8852,5.8928,5.9043,5.9104,5.918,5.9276,5.9313,5.9418,5.954,5.9539,5.9677,5.9757,5.9906,5.996,6.0069,6.0028,6.0077,6.0089,6.01,6.0109,5.9787,6.009,6.0089,6.0089,6.0088,6.0088,0,5.9052,5.9098,5.9204,5.9317,5.9407,5.9372,5.9459,5.9537,5.9659,5.9734,5.983,5.9975,6.0092,6.0145,6.0261,6.0338,6.0328,6.0368,6.0361,6.0372,6.0141,6.0099,6.0373,6.0373,6.0373,6.0373,6.0373,6.0373,5.9218,5.9379,5.9393,5.9584,5.963,5.9763,5.9815,5.9885,5.9945,6.0106,6.0202,6.0235,6.0302,6.0422,6.0527,6.054,6.0583,6.0628,6.0635,6.0418,6.0389,6.0361,6.0322,6.0638,6.0638,6.0856,6.0858,6.086]},{"header":{"parameterUnit":"m.s-1","parameterCategory":1,"la1":30.2991,"la2":30.254,"lo1":-89.0895,"lo2":-89.0444,"dy":0.0017,"dx":0.0017,"nx":28,"ny":28,"refTime":"2026-02-05T03:00:00:Z","depth":0,"parameterNumber":3,"parameterNumberName":"V-component_of_WINDS"},"data":[0,0,0,0,0,0,0,0,0,0,0,0,0,0,0,0,0,0,0,0,0,0,0,0,0,0,0,0,0,0,0,0,0,0,0,0,0,0,0,0,0,0,0,0,0,0,0,0,0,0,0,0,0,0,0,0,0,0,2.7083,2.7084,0,2.7131,2.7131,2.7132,2.7098,2.7096,2.7095,2.7093,2.7141,2.7144,2.7146,0,0,0,0,0,0,0,0,0,0,0,0,0,2.696,2.6963,2.7083,2.7084,2.7084,2.7131,2.7131,2.7132,2.7098,2.7096,2.7095,2.7093,2.714,2.7143,2.7147,0,0,0,0,0,0,0,0,0,0,0,0,0,2.7011,2.6964,2.7083,2.7073,2.7073,2.713,2.7131,2.7132,2.7099,2.7096,2.7094,2.7092,2.7139,2.7143,2.7147,2.7217,0,0,2.7159,2.7161,0,0,0,0,0,0,0,0,2.7009,2.7016,2.7074,2.7074,2.7074,2.7106,2.7105,2.716,2.7099,2.7089,2.7093,2.7091,2.7131,2.7136,2.715,2.7219,2.7221,2.716,2.7162,2.7164,2.7165,0,0,0,0,0,0,0,2.7005,2.7014,2.7102,2.7075,2.7075,2.7065,2.707,2.7116,2.7122,2.7089,2.7087,2.7093,2.7131,2.7146,2.715,2.7222,2.7159,2.7163,2.7165,2.7167,2.7348,2.7351,0,0,0,0,0,0,2.7003,2.7011,2.71,2.7103,2.7035,2.7069,2.7075,2.7098,2.7121,2.7123,2.7095,2.7091,2.714,2.7146,2.7152,2.7234,2.7164,2.7167,2.717,2.7346,2.7349,2.7351,0,0,0,0,0,0,2.7,2.7011,2.7098,2.7057,2.7067,2.7074,2.71,2.71,2.7115,2.7126,2.7126,2.711,2.7138,2.7146,2.72,2.7235,2.7169,2.7173,2.7343,2.7347,2.735,2.7399,0,0,0,0,0,0,2.6997,2.701,2.7038,2.7057,2.7069,2.7147,2.7102,2.7103,2.7122,2.7118,2.714,2.7141,2.7137,2.7195,2.7204,2.7239,2.7176,2.734,2.7345,2.7349,2.7394,2.7404,2.7412,0,0,0,0,0,2.6993,2.705,2.7039,2.705,2.7104,2.7149,2.7156,2.7151,2.7125,2.7152,2.7159,2.714,2.723,2.7201,2.7211,2.7248,2.7338,2.7343,2.7349,2.739,2.7402,2.7412,0,0,0,0,0,0,2.7034,2.7052,2.7041,2.7106,2.7127,2.7144,2.7178,2.7164,2.7192,2.7186,2.7179,2.7184,2.724,2.7249,2.7217,2.7315,2.7279,2.7287,2.7307,2.7318,2.7327,2.7323,2.7179,0,0,0,0,0,2.7051,2.7087,2.7101,2.7157,2.7168,2.7171,2.7191,2.7185,2.7205,2.7214,2.7224,2.7244,2.7276,2.7298,2.7328,2.7395,2.7398,2.7425,2.7434,2.7441,2.7448,2.7482,2.7494,2.7369,2.7369,2.7369,0,0,2.7086,2.71,2.7124,2.7166,2.7181,2.7217,2.7178,2.7219,2.7246,2.722,2.7271,2.7279,2.7301,2.7361,2.7388,2.7371,2.7483,2.7448,2.7454,2.7457,2.7489,2.7501,2.7511,2.7373,2.7372,2.7372,0,0,2.7169,2.7184,2.7231,2.7247,2.727,2.7271,2.7282,2.7301,2.7306,2.7357,2.7338,2.7369,2.7425,2.7441,2.7456,2.7542,2.7526,2.7552,2.7598,2.7632,2.7641,2.765,2.7679,2.769,2.7559,2.7559,2.7559,0,2.7209,2.7264,2.7258,2.7299,2.7317,2.7295,2.7342,2.7358,2.7389,2.7402,2.7382,2.7451,2.7464,2.7527,2.7547,2.7561,2.7573,2.755,2.7641,2.7649,2.7657,2.7685,2.7696,2.7562,2.7562,2.7562,2.7561,0,2.7312,2.735,2.7386,2.7416,2.7439,2.7483,2.7482,2.7505,2.7497,2.75,2.7552,2.7567,2.7599,2.7613,2.7606,2.7674,2.7662,2.7642,2.7605,2.7672,2.7698,2.7709,2.7567,2.7565,2.7565,2.7564,0,0,2.7423,2.7448,2.7461,2.7474,2.7497,2.7526,2.7568,2.76,2.7619,2.7641,2.7675,2.7723,2.7703,2.772,2.7714,2.7744,2.7809,2.7719,2.7719,2.7734,2.7883,2.7898,2.791,2.7798,2.78,2.7802,2.7881,0,2.7506,2.758,2.7574,2.7644,2.7678,2.7657,2.7693,2.7711,2.7714,2.7743,2.7746,2.778,2.7752,2.7762,2.779,2.7795,2.7838,2.7789,2.7829,2.783,2.7823,2.7924,2.7941,2.8015,2.7891,2.7893,2.7894,0,2.7612,2.7637,2.7711,2.7726,2.774,2.7774,2.7801,2.7829,2.7847,2.7848,2.7866,2.7855,2.7896,2.7859,2.7915,2.7881,2.7897,2.7902,2.7904,2.7907,2.7866,2.7929,2.8038,2.8049,2.791,2.7909,2.7908,0,2.7684,2.7736,2.7786,2.7798,2.7818,2.7842,2.7851,2.7867,2.7886,2.7909,2.7921,2.7949,2.7964,2.7986,2.7981,2.7955,2.8038,2.8001,2.8038,2.8038,2.8056,2.8055,2.8169,2.8068,2.8068,2.8068,2.8067,0,2.7776,2.7822,2.7819,2.7849,2.7899,2.7891,2.794,2.7946,2.7961,2.7991,2.7974,2.8003,2.7996,2.8025,2.8022,2.8067,2.8075,2.8075,2.8074,2.8076,2.8076,2.8086,2.808,2.8071,2.807,2.8069,2.8069,0,2.7865,2.7865,2.7918,2.7932,2.7936,2.7972,2.7984,2.8012,2.8013,2.8052,2.8061,2.8063,2.8096,2.8094,2.813,2.8128,2.8184,2.8177,2.8178,2.8176,2.8213,2.8209,2.8336,2.8352,2.8242,2.8243,2.8244,0,2.7924,2.7958,2.7975,2.7995,2.8005,2.8037,2.8055,2.8049,2.8068,2.8091,2.8116,2.8147,2.8171,2.8223,2.8228,2.8255,2.8248,2.829,2.8252,2.8252,2.8247,2.8244,2.8247,2.8298,2.8299,2.83,2.8301,0,2.8027,2.8025,2.8053,2.808,2.8102,2.8123,2.8143,2.8159,2.8154,2.8177,2.821,2.8228,2.8265,2.8295,2.8321,2.8329,2.8314,2.8313,2.8323,2.8325,2.8324,2.8324,2.8197,2.831,2.8309,2.8308,2.8308,2.8307,2.8102,2.813,2.8147,2.8177,2.8191,2.8209,2.8235,2.824,2.8267,2.8296,2.8291,2.8327,2.8342,2.8375,2.8386,2.8413,2.8398,2.8413,2.8416,2.842,2.8423,2.832,2.8418,2.8418,2.8418,2.8417,2.8417,0,2.8203,2.8212,2.824,2.8267,2.8291,2.8275,2.8294,2.8315,2.8347,2.8363,2.8387,2.8423,2.8452,2.8458,2.8485,2.8506,2.8499,2.8513,2.8511,2.8513,2.8436,2.8424,2.8518,2.8518,2.8518,2.8518,2.8518,2.8518,2.8259,2.8305,2.8305,2.8358,2.8366,2.8401,2.8414,2.843,2.8442,2.8484,2.8507,2.8511,2.8523,2.855,2.8575,2.8576,2.8586,2.8602,2.86,2.8529,2.8519,2.8509,2.8498,2.8605,2.8605,2.8675,2.8675,2.8676]}]]